Location: Bittkow
(50.3000°N, 19.0000°E)
Time: 21:30:35
(UTC+00:00)

Cosmos 2341 Rocket - Pass Details

Date: 19 September 2020
Orbit: 968 x 1005 km, 82.9° (Epoch: 20 October)

Event Time Altitude Azimuth Distance (km) Brightness Sun altitude
Rises 00:05:31 0° 350° (N) 3,735 7.7 -35.0°
Reaches altitude 10° 00:08:04 10° 352° (N) 2,777 6.9 -34.8°
Enters shadow 00:13:02 56° 5° (N) 1,167 4.5 -34.5°
